Time,TemperatureF,DewpointF,PressureIn,WindDirection,WindDirectionDegrees,WindSpeedMPH,WindSpeedGustMPH,Humidity,HourlyPrecipIn,Conditions,Clouds,dailyrainin,SoftwareType,DateUTC
2013-05-23 00:00:00,72.3,22.0,29.65,SW,219,0.0,1.0,15,0.00,,,0.00,Wunderground v.1.15,2013-05-23 06:00:00,
2013-05-23 00:10:00,70.7,22.3,29.65,SW,219,0.0,0.0,16,0.00,,,0.00,Wunderground v.1.15,2013-05-23 06:10:00,
2013-05-23 00:20:00,70.2,21.9,29.65,SW,219,0.0,0.0,16,0.00,,,0.00,Wunderground v.1.15,2013-05-23 06:20:00,
2013-05-23 00:30:00,69.8,21.5,29.66,SW,219,0.0,0.0,16,0.00,,,0.00,Wunderground v.1.15,2013-05-23 06:30:00,
2013-05-23 00:40:00,69.4,21.2,29.66,SW,219,0.0,0.0,16,0.00,,,0.00,Wunderground v.1.15,2013-05-23 06:40:00,
2013-05-23 00:50:00,69.6,21.4,29.66,SW,219,0.0,0.0,16,0.00,,,0.00,Wunderground v.1.15,2013-05-23 06:50:00,
2013-05-23 01:00:00,69.1,21.0,29.66,SW,219,0.0,0.0,16,0.00,,,0.00,Wunderground v.1.15,2013-05-23 07:00:00,
2013-05-23 01:10:00,68.3,23.1,29.66,SW,219,0.0,1.0,18,0.00,,,0.00,Wunderground v.1.15,2013-05-23 07:10:00,
2013-05-23 01:20:00,67.2,22.2,29.66,SW,219,0.0,1.0,18,0.00,,,0.00,Wunderground v.1.15,2013-05-23 07:20:00,
2013-05-23 01:30:00,66.7,23.1,29.66,SW,219,0.0,1.0,19,0.00,,,0.00,Wunderground v.1.15,2013-05-23 07:30:00,
2013-05-23 01:40:00,66.1,23.8,29.67,SW,219,0.0,1.0,20,0.00,,,0.00,Wunderground v.1.15,2013-05-23 07:40:00,
2013-05-23 01:50:00,65.6,22.2,29.66,SW,219,0.0,1.0,19,0.00,,,0.00,Wunderground v.1.15,2013-05-23 07:50:00,
2013-05-23 02:00:00,65.4,22.0,29.66,SW,219,0.0,1.0,19,0.00,,,0.00,Wunderground v.1.15,2013-05-23 08:00:00,
2013-05-23 02:10:00,65.3,20.7,29.67,SW,219,0.0,1.0,18,0.00,,,0.00,Wunderground v.1.15,2013-05-23 08:10:00,
2013-05-23 02:20:00,65.7,21.0,29.67,SW,219,0.0,1.0,18,0.00,,,0.00,Wunderground v.1.15,2013-05-23 08:20:00,
2013-05-23 02:30:00,65.8,21.1,29.67,SW,219,0.0,1.0,18,0.00,,,0.00,Wunderground v.1.15,2013-05-23 08:30:00,
2013-05-23 02:40:00,66.3,20.1,29.67,SW,219,1.0,1.0,17,0.00,,,0.00,Wunderground v.1.15,2013-05-23 08:40:00,
2013-05-23 02:50:00,66.2,20.0,29.67,SW,219,0.0,1.0,17,0.00,,,0.00,Wunderground v.1.15,2013-05-23 08:50:00,
2013-05-23 03:00:00,65.7,21.0,29.68,SW,219,0.0,1.0,18,0.00,,,0.00,Wunderground v.1.15,2013-05-23 09:00:00,
2013-05-23 03:10:00,64.6,21.4,29.68,SW,219,0.0,1.0,19,0.00,,,0.00,Wunderground v.1.15,2013-05-23 09:10:00,
2013-05-23 03:20:00,64.1,22.2,29.69,SW,219,0.0,1.0,20,0.00,,,0.00,Wunderground v.1.15,2013-05-23 09:20:00,
2013-05-23 03:30:00,63.2,22.6,29.69,SW,219,0.0,1.0,21,0.00,,,0.00,Wunderground v.1.15,2013-05-23 09:30:00,
2013-05-23 03:40:00,63.0,22.4,29.69,SW,219,0.0,1.0,21,0.00,,,0.00,Wunderground v.1.15,2013-05-23 09:40:00,
2013-05-23 03:50:00,62.4,23.0,29.70,SW,219,0.0,1.0,22,0.00,,,0.00,Wunderground v.1.15,2013-05-23 09:50:00,
2013-05-23 04:00:00,61.6,23.4,29.70,SW,219,0.0,1.0,23,0.00,,,0.00,Wunderground v.1.15,2013-05-23 10:00:00,
2013-05-23 04:10:00,61.3,23.1,29.71,SW,219,0.0,1.0,23,0.00,,,0.00,Wunderground v.1.15,2013-05-23 10:10:00,
2013-05-23 04:20:00,60.5,23.5,29.71,SW,219,0.0,1.0,24,0.00,,,0.00,Wunderground v.1.15,2013-05-23 10:20:00,
2013-05-23 04:30:00,59.9,23.0,29.71,SW,219,0.0,1.0,24,0.00,,,0.00,Wunderground v.1.15,2013-05-23 10:30:00,
2013-05-23 04:40:00,59.5,23.6,29.71,SW,219,0.0,1.0,25,0.00,,,0.00,Wunderground v.1.15,2013-05-23 10:40:00,
2013-05-23 04:50:00,59.3,23.4,29.71,SW,219,0.0,1.0,25,0.00,,,0.00,Wunderground v.1.15,2013-05-23 10:50:00,
2013-05-23 05:00:00,59.3,23.4,29.71,SW,219,0.0,1.0,25,0.00,,,0.00,Wunderground v.1.15,2013-05-23 11:00:00,
2013-05-23 05:10:00,58.8,23.0,29.71,SW,219,0.0,1.0,25,0.00,,,0.00,Wunderground v.1.15,2013-05-23 11:10:00,
2013-05-23 05:20:00,58.5,22.8,29.71,SW,219,0.0,1.0,25,0.00,,,0.00,Wunderground v.1.15,2013-05-23 11:20:00,
2013-05-23 05:30:00,59.0,23.2,29.71,SW,219,0.0,1.0,25,0.00,,,0.00,Wunderground v.1.15,2013-05-23 11:30:00,
2013-05-23 05:40:00,58.8,23.9,29.72,SW,219,0.0,2.0,26,0.00,,,0.00,Wunderground v.1.15,2013-05-23 11:40:00,
2013-05-23 05:50:00,58.7,24.8,29.73,SW,219,1.0,1.0,27,0.00,,,0.00,Wunderground v.1.15,2013-05-23 11:50:00,
2013-05-23 06:00:00,58.4,25.4,29.73,SW,219,0.0,1.0,28,0.00,,,0.00,Wunderground v.1.15,2013-05-23 12:00:00,
2013-05-23 06:10:00,57.8,25.7,29.73,SW,219,0.0,1.0,29,0.00,,,0.00,Wunderground v.1.15,2013-05-23 12:10:00,
2013-05-23 06:20:00,56.9,24.9,29.73,SW,219,0.0,1.0,29,0.00,,,0.00,Wunderground v.1.15,2013-05-23 12:20:00,
2013-05-23 06:30:00,56.9,25.7,29.73,SW,219,0.0,1.0,30,0.00,,,0.00,Wunderground v.1.15,2013-05-23 12:30:00,
2013-05-23 06:40:00,58.4,25.4,29.74,SW,219,0.0,1.0,28,0.00,,,0.00,Wunderground v.1.15,2013-05-23 12:40:00,
2013-05-23 06:50:00,60.2,25.1,29.74,SW,219,0.0,1.0,26,0.00,,,0.00,Wunderground v.1.15,2013-05-23 12:50:00,
2013-05-23 07:00:00,61.3,24.2,29.74,SW,219,0.0,1.0,24,0.00,,,0.00,Wunderground v.1.15,2013-05-23 13:00:00,
2013-05-23 07:10:00,62.9,26.5,29.74,SW,219,0.0,1.0,25,0.00,,,0.00,Wunderground v.1.15,2013-05-23 13:10:00,
2013-05-23 07:20:00,64.5,25.8,29.73,SW,219,0.0,1.0,23,0.00,,,0.00,Wunderground v.1.15,2013-05-23 13:20:00,
2013-05-23 07:30:00,65.4,24.4,29.73,SW,219,1.0,2.0,21,0.00,,,0.00,Wunderground v.1.15,2013-05-23 13:30:00,
2013-05-23 07:40:00,65.3,24.3,29.74,SW,219,2.0,2.0,21,0.00,,,0.00,Wunderground v.1.15,2013-05-23 13:40:00,
2013-05-23 07:50:00,65.4,22.0,29.74,SW,219,1.0,5.0,19,0.00,,,0.00,Wunderground v.1.15,2013-05-23 13:50:00,
2013-05-23 08:00:00,66.1,21.3,29.74,SW,219,1.0,2.0,18,0.00,,,0.00,Wunderground v.1.15,2013-05-23 14:00:00,
2013-05-23 08:10:00,67.0,20.7,29.75,SW,219,1.0,1.0,17,0.00,,,0.00,Wunderground v.1.15,2013-05-23 14:10:00,
2013-05-23 08:20:00,67.7,19.8,29.76,SW,219,1.0,3.0,16,0.00,,,0.00,Wunderground v.1.15,2013-05-23 14:20:00,
2013-05-23 08:30:00,67.1,22.1,29.76,WSW,240,4.0,4.0,18,0.00,,,0.00,Wunderground v.1.15,2013-05-23 14:30:00,
2013-05-23 08:40:00,68.3,23.1,29.77,West,263,2.0,5.0,18,0.00,,,0.00,Wunderground v.1.15,2013-05-23 14:40:00,
2013-05-23 08:50:00,69.4,21.2,29.77,West,277,4.0,4.0,16,0.00,,,0.00,Wunderground v.1.15,2013-05-23 14:50:00,
2013-05-23 09:00:00,70.6,22.2,29.77,West,279,3.0,3.0,16,0.00,,,0.00,Wunderground v.1.15,2013-05-23 15:00:00,
2013-05-23 09:10:00,72.2,21.9,29.77,West,279,1.0,1.0,15,0.00,,,0.00,Wunderground v.1.15,2013-05-23 15:10:00,
2013-05-23 09:20:00,74.3,22.0,29.77,West,279,0.0,2.0,14,0.00,,,0.00,Wunderground v.1.15,2013-05-23 15:20:00,
2013-05-23 09:30:00,75.9,21.5,29.76,West,279,1.0,1.0,13,0.00,,,0.00,Wunderground v.1.15,2013-05-23 15:30:00,
2013-05-23 09:40:00,77.3,20.7,29.76,West,279,0.0,1.0,12,0.00,,,0.00,Wunderground v.1.15,2013-05-23 15:40:00,
2013-05-23 09:50:00,78.4,19.5,29.75,West,279,0.0,1.0,11,0.00,,,0.00,Wunderground v.1.15,2013-05-23 15:50:00,
2013-05-23 10:00:00,78.1,19.3,29.75,West,279,1.0,1.0,11,0.00,,,0.00,Wunderground v.1.15,2013-05-23 16:00:00,
2013-05-23 10:10:00,79.3,20.2,29.75,West,279,0.0,1.0,11,0.00,,,0.00,Wunderground v.1.15,2013-05-23 16:10:00,
2013-05-23 10:20:00,78.4,19.5,29.75,South,191,2.0,3.0,11,0.00,,,0.00,Wunderground v.1.15,2013-05-23 16:20:00,
2013-05-23 10:30:00,78.3,19.4,29.75,South,172,3.0,3.0,11,0.00,,,0.00,Wunderground v.1.15,2013-05-23 16:30:00,
2013-05-23 10:40:00,79.1,20.0,29.74,South,181,2.0,3.0,11,0.00,,,0.00,Wunderground v.1.15,2013-05-23 16:40:00,
2013-05-23 10:50:00,80.3,21.0,29.74,South,181,2.0,2.0,11,0.00,,,0.00,Wunderground v.1.15,2013-05-23 16:50:00,
2013-05-23 11:00:00,80.9,21.4,29.74,South,183,2.0,2.0,11,0.00,,,0.00,Wunderground v.1.15,2013-05-23 17:00:00,
2013-05-23 11:10:00,81.9,19.9,29.74,South,169,2.0,7.0,10,0.00,,,0.00,Wunderground v.1.15,2013-05-23 17:10:00,
2013-05-23 11:20:00,82.3,20.3,29.74,South,181,2.0,2.0,10,0.00,,,0.00,Wunderground v.1.15,2013-05-23 17:20:00,
2013-05-23 11:30:00,82.3,20.3,29.73,SSW,201,2.0,2.0,10,0.00,,,0.00,Wunderground v.1.15,2013-05-23 17:30:00,
2013-05-23 11:40:00,83.3,18.5,29.73,SSE,155,3.0,3.0,9,0.00,,,0.00,Wunderground v.1.15,2013-05-23 17:40:00,
2013-05-23 11:50:00,83.4,18.6,29.73,SSW,200,3.0,3.0,9,0.00,,,0.00,Wunderground v.1.15,2013-05-23 17:50:00,
2013-05-23 12:00:00,83.3,18.5,29.72,SW,227,4.0,7.0,9,0.00,,,0.00,Wunderground v.1.15,2013-05-23 18:00:00,
2013-05-23 12:10:00,84.0,19.1,29.72,South,184,4.0,4.0,9,0.00,,,0.00,Wunderground v.1.15,2013-05-23 18:10:00,
2013-05-23 12:20:00,84.8,19.7,29.72,SSW,199,5.0,5.0,9,0.00,,,0.00,Wunderground v.1.15,2013-05-23 18:20:00,
2013-05-23 12:30:00,84.8,16.9,29.72,South,171,6.0,6.0,8,0.00,,,0.00,Wunderground v.1.15,2013-05-23 18:30:00,
2013-05-23 12:40:00,85.2,20.0,29.71,SSW,202,5.0,5.0,9,0.00,,,0.00,Wunderground v.1.15,2013-05-23 18:40:00,
2013-05-23 12:50:00,86.1,17.9,29.71,SSW,196,5.0,7.0,8,0.00,,,0.00,Wunderground v.1.15,2013-05-23 18:50:00,
2013-05-23 13:00:00,85.6,17.5,29.70,South,169,7.0,7.0,8,0.00,,,0.00,Wunderground v.1.15,2013-05-23 19:00:00,
2013-05-23 13:10:00,85.6,17.5,29.70,SW,216,9.0,9.0,8,0.00,,,0.00,Wunderground v.1.15,2013-05-23 19:10:00,
2013-05-23 13:20:00,85.7,17.6,29.70,SSW,205,8.0,8.0,8,0.00,,,0.00,Wunderground v.1.15,2013-05-23 19:20:00,
2013-05-23 13:30:00,87.2,18.7,29.69,SSW,199,8.0,9.0,8,0.00,,,0.00,Wunderground v.1.15,2013-05-23 19:30:00,
2013-05-23 13:40:00,86.9,18.5,29.69,SSW,211,7.0,7.0,8,0.00,,,0.00,Wunderground v.1.15,2013-05-23 19:40:00,
2013-05-23 13:50:00,87.4,18.9,29.68,SSW,196,8.0,8.0,8,0.00,,,0.00,Wunderground v.1.15,2013-05-23 19:50:00,
2013-05-23 14:00:00,88.0,19.3,29.68,SSW,204,8.0,8.0,8,0.00,,,0.00,Wunderground v.1.15,2013-05-23 20:00:00,
2013-05-23 14:10:00,88.5,19.7,29.67,SSW,196,9.0,9.0,8,0.00,,,0.00,Wunderground v.1.15,2013-05-23 20:10:00,
2013-05-23 14:20:00,87.8,16.0,29.67,SSE,167,10.0,10.0,7,0.00,,,0.00,Wunderground v.1.15,2013-05-23 20:20:00,
2013-05-23 14:30:00,88.4,16.5,29.67,SSW,209,10.0,10.0,7,0.00,,,0.00,Wunderground v.1.15,2013-05-23 20:30:00,
2013-05-23 14:40:00,89.0,13.4,29.66,South,178,9.0,9.0,6,0.00,,,0.00,Wunderground v.1.15,2013-05-23 20:40:00,
2013-05-23 14:50:00,89.1,13.5,29.66,SSW,204,10.0,10.0,6,0.00,,,0.00,Wunderground v.1.15,2013-05-23 20:50:00,
2013-05-23 15:00:00,89.7,13.9,29.65,SW,229,8.0,13.0,6,0.00,,,0.00,Wunderground v.1.15,2013-05-23 21:00:00,
2013-05-23 15:10:00,89.3,13.6,29.64,South,188,13.0,13.0,6,0.00,,,0.00,Wunderground v.1.15,2013-05-23 21:10:00,
2013-05-23 15:20:00,89.6,13.8,29.64,South,186,11.0,13.0,6,0.00,,,0.00,Wunderground v.1.15,2013-05-23 21:20:00,
2013-05-23 15:30:00,89.5,13.7,29.62,SW,228,8.0,10.0,6,0.00,,,0.00,Wunderground v.1.15,2013-05-23 21:30:00,
2013-05-23 15:40:00,89.7,13.9,29.62,SSW,192,11.0,13.0,6,0.00,,,0.00,Wunderground v.1.15,2013-05-23 21:40:00,
2013-05-23 15:50:00,89.8,14.0,29.61,SSW,200,11.0,13.0,6,0.00,,,0.00,Wunderground v.1.15,2013-05-23 21:50:00,
2013-05-23 16:00:00,90.8,10.5,29.60,South,191,7.0,7.0,5,0.00,,,0.00,Wunderground v.1.15,2013-05-23 22:00:00,
2013-05-23 16:10:00,90.4,14.4,29.60,SSW,198,7.0,7.0,6,0.00,,,0.00,Wunderground v.1.15,2013-05-23 22:10:00,
2013-05-23 16:20:00,91.2,10.8,29.60,SE,142,7.0,11.0,5,0.00,,,0.00,Wunderground v.1.15,2013-05-23 22:20:00,
2013-05-23 16:30:00,90.2,10.1,29.59,SE,129,11.0,11.0,5,0.00,,,0.00,Wunderground v.1.15,2013-05-23 22:30:00,
2013-05-23 16:40:00,90.0,14.1,29.59,South,171,10.0,11.0,6,0.00,,,0.00,Wunderground v.1.15,2013-05-23 22:40:00,
2013-05-23 16:50:00,90.0,14.1,29.59,SE,142,15.0,15.0,6,0.00,,,0.00,Wunderground v.1.15,2013-05-23 22:50:00,
2013-05-23 17:00:00,90.1,14.2,29.60,SSW,209,14.0,14.0,6,0.00,,,0.00,Wunderground v.1.15,2013-05-23 23:00:00,
2013-05-23 17:10:00,89.5,13.7,29.59,SE,144,10.0,10.0,6,0.00,,,0.00,Wunderground v.1.15,2013-05-23 23:10:00,
2013-05-23 17:20:00,90.0,14.1,29.58,South,191,6.0,7.0,6,0.00,,,0.00,Wunderground v.1.15,2013-05-23 23:20:00,
2013-05-23 17:30:00,90.3,14.3,29.58,East,96,6.0,9.0,6,0.00,,,0.00,Wunderground v.1.15,2013-05-23 23:30:00,
2013-05-23 17:40:00,90.7,14.6,29.58,SE,144,7.0,7.0,6,0.00,,,0.00,Wunderground v.1.15,2013-05-23 23:40:00,
2013-05-23 17:50:00,90.6,14.5,29.57,SSE,158,7.0,9.0,6,0.00,,,0.00,Wunderground v.1.15,2013-05-23 23:50:00,
2013-05-23 18:00:00,90.1,14.2,29.57,SSE,151,11.0,11.0,6,0.00,,,0.00,Wunderground v.1.15,2013-05-24 00:00:00,
2013-05-23 18:10:00,90.2,10.1,29.57,South,182,11.0,19.0,5,0.00,,,0.00,Wunderground v.1.15,2013-05-24 00:10:00,
2013-05-23 18:20:00,90.4,14.4,29.56,SE,141,10.0,10.0,6,0.00,,,0.00,Wunderground v.1.15,2013-05-24 00:20:00,
2013-05-23 18:30:00,89.9,9.9,29.56,South,190,10.0,13.0,5,0.00,,,0.00,Wunderground v.1.15,2013-05-24 00:30:00,
2013-05-23 18:40:00,89.6,9.7,29.56,SSE,162,9.0,9.0,5,0.00,,,0.00,Wunderground v.1.15,2013-05-24 00:40:00,
2013-05-23 18:50:00,89.2,9.4,29.56,South,175,9.0,9.0,5,0.00,,,0.00,Wunderground v.1.15,2013-05-24 00:50:00,
2013-05-23 19:00:00,89.0,9.3,29.57,SE,133,9.0,11.0,5,0.00,,,0.00,Wunderground v.1.15,2013-05-24 01:00:00,
2013-05-23 19:10:00,88.5,13.0,29.57,SSE,167,8.0,8.0,6,0.00,,,0.00,Wunderground v.1.15,2013-05-24 01:10:00,
2013-05-23 19:20:00,88.1,12.7,29.57,ESE,122,8.0,8.0,6,0.00,,,0.00,Wunderground v.1.15,2013-05-24 01:20:00,
2013-05-23 19:30:00,87.8,12.5,29.58,SSE,155,9.0,10.0,6,0.00,,,0.00,Wunderground v.1.15,2013-05-24 01:30:00,
2013-05-23 19:40:00,87.7,12.5,29.58,South,184,7.0,11.0,6,0.00,,,0.00,Wunderground v.1.15,2013-05-24 01:40:00,
2013-05-23 19:50:00,87.5,12.3,29.58,SE,144,8.0,8.0,6,0.00,,,0.00,Wunderground v.1.15,2013-05-24 01:50:00,
2013-05-23 20:00:00,87.2,8.0,29.58,SSE,160,7.0,7.0,5,0.00,,,0.00,Wunderground v.1.15,2013-05-24 02:00:00,
2013-05-23 20:10:00,86.8,11.8,29.59,South,178,8.0,8.0,6,0.00,,,0.00,Wunderground v.1.15,2013-05-24 02:10:00,
2013-05-23 20:20:00,85.7,14.5,29.60,SSW,207,7.0,7.0,7,0.00,,,0.00,Wunderground v.1.15,2013-05-24 02:20:00,
2013-05-23 20:30:00,84.8,13.9,29.60,SSW,197,5.0,5.0,7,0.00,,,0.00,Wunderground v.1.15,2013-05-24 02:30:00,
2013-05-23 20:40:00,84.5,6.1,29.61,SSW,197,2.0,4.0,5,0.00,,,0.00,Wunderground v.1.15,2013-05-24 02:40:00,
2013-05-23 20:50:00,84.1,9.9,29.61,SSW,198,1.0,1.0,6,0.00,,,0.00,Wunderground v.1.15,2013-05-24 02:50:00,
2013-05-23 21:00:00,83.5,9.4,29.62,SSW,197,0.0,1.0,6,0.00,,,0.00,Wunderground v.1.15,2013-05-24 03:00:00,
2013-05-23 21:10:00,83.1,9.1,29.62,SSW,197,1.0,1.0,6,0.00,,,0.00,Wunderground v.1.15,2013-05-24 03:10:00,
2013-05-23 21:20:00,82.4,8.6,29.63,SSW,197,0.0,1.0,6,0.00,,,0.00,Wunderground v.1.15,2013-05-24 03:20:00,
2013-05-23 21:30:00,81.8,8.2,29.63,SSW,197,0.0,1.0,6,0.00,,,0.00,Wunderground v.1.15,2013-05-24 03:30:00,
2013-05-23 21:40:00,81.1,11.1,29.63,SSW,197,0.0,1.0,7,0.00,,,0.00,Wunderground v.1.15,2013-05-24 03:40:00,
2013-05-23 21:50:00,79.4,12.9,29.64,SSW,198,0.0,1.0,8,0.00,,,0.00,Wunderground v.1.15,2013-05-24 03:50:00,
2013-05-23 22:00:00,77.5,14.2,29.64,SSW,197,0.0,1.0,9,0.00,,,0.00,Wunderground v.1.15,2013-05-24 04:00:00,
2013-05-23 22:10:00,76.0,15.4,29.65,SSW,197,0.0,1.0,10,0.00,,,0.00,Wunderground v.1.15,2013-05-24 04:10:00,
2013-05-23 22:20:00,75.1,14.8,29.65,SSW,197,0.0,1.0,10,0.00,,,0.00,Wunderground v.1.15,2013-05-24 04:20:00,
2013-05-23 22:30:00,75.1,14.8,29.66,South,182,0.0,1.0,10,0.00,,,0.00,Wunderground v.1.15,2013-05-24 04:30:00,
2013-05-23 22:40:00,76.8,37.3,29.67,ENE,77,3.0,5.0,24,0.00,,,0.00,Wunderground v.1.15,2013-05-24 04:40:00,
2013-05-23 22:50:00,77.9,39.2,29.66,East,82,4.0,6.0,25,0.00,,,0.00,Wunderground v.1.15,2013-05-24 04:50:00,
2013-05-23 23:00:00,78.2,44.2,29.66,East,96,6.0,8.0,30,0.00,,,0.00,Wunderground v.1.15,2013-05-24 05:00:00,
2013-05-23 23:10:00,77.7,44.6,29.66,ESE,118,5.0,5.0,31,0.00,,,0.00,Wunderground v.1.15,2013-05-24 05:10:00,
2013-05-23 23:20:00,77.6,43.7,29.67,ESE,120,2.0,2.0,30,0.00,,,0.00,Wunderground v.1.15,2013-05-24 05:20:00,
2013-05-23 23:30:00,77.1,45.8,29.66,ESE,113,1.0,1.0,33,0.00,,,0.00,Wunderground v.1.15,2013-05-24 05:30:00,
2013-05-23 23:40:00,76.7,46.2,29.66,ESE,103,3.0,3.0,34,0.00,,,0.00,Wunderground v.1.15,2013-05-24 05:40:00,
2013-05-23 23:50:00,76.2,48.0,29.66,SE,124,2.0,2.0,37,0.00,,,0.00,Wunderground v.1.15,2013-05-24 05:50:00,